"Timestamp","TZ","WindDir_Mean (deg)","WindSpd_Mean (km/h)","WindSpd_Min (km/h)","WindSpd_Max (km/h)","Temp_Mean (deg)","RH_Mean (%)","MSLP_Mean (hPa)","Rain_Acc (mm)","Rain_Intensity (mm/h)","Hail_Acc (hits/cm2)","Hail_Intensity (hits/cm2hr)","Solar_Mean (W/m2)"
2022/10/11 00:00:00.006,n,270,3.24,2.52,3.6,16.9,69.2,1023.72,0,0,0,0,0.0383
2022/10/11 00:01:00.001,n,284,3.96,3.24,4.32,16.9,69.2,1023.72,0,0,0,0,0.042648
2022/10/11 00:02:00.002,n,242,2.52,2.16,2.88,16.9,69.5,1023.62,0,0,0,0,0.044403
2022/10/11 00:03:00.004,n,299,2.16,2.16,2.52,16.9,69.4,1023.62,0,0,0,0,0.042648
2022/10/11 00:04:00.007,n,136,1.44,0.72,4.32,16.9,69.4,1023.62,0,0,0,0,0.042648
2022/10/11 00:05:00.001,n,253,4.32,0.72,5.04,16.9,69.4,1023.62,0,0,0,0,0.040894
2022/10/11 00:06:00.001,n,287,2.88,1.8,3.96,16.9,69.5,1023.62,0,0,0,0,0.0383
2022/10/11 00:07:00.001,n,292,2.16,1.44,2.88,16.9,69.5,1023.62,0,0,0,0,0.042648
2022/10/11 00:08:00.002,n,266,1.8,1.08,2.16,16.9,69.4,1023.52,0,0,0,0,0.044403
2022/10/11 00:09:00.005,n,290,3.24,2.52,3.6,16.9,69.7,1023.52,0,0,0,0,0.040894
2022/10/11 00:10:00.001,n,271,2.16,1.44,2.88,16.9,69.7,1023.52,0,0,0,0,0.040894
2022/10/11 00:11:00.002,n,252,3.24,2.16,3.6,16.9,68.9,1023.42,0,0,0,0,0.043488
2022/10/11 00:12:00.004,n,204,2.88,2.16,3.6,16.9,68.9,1023.42,0,0,0,0,0.040894
2022/10/11 00:13:00.002,n,221,5.04,3.96,5.76,16.9,68.9,1023.42,0,0,0,0,0.039139
2022/10/11 00:14:00.001,n,224,2.16,1.44,4.68,16.9,68.8,1023.42,0,0,0,0,0.041771
2022/10/11 00:15:00.004,n,193,1.8,1.44,4.68,16.9,69.1,1023.42,0,0,0,0,0.039139
2022/10/11 00:16:00.007,n,286,2.52,2.16,2.88,16.9,69.3,1023.32,0,0,0,0,0.040054
2022/10/11 00:17:00.010,n,259,3.6,1.08,4.32,16.9,68.9,1023.32,0,0,0,0,0.040894
2022/10/11 00:18:00.014,n,296,2.88,2.16,3.6,16.9,69.8,1023.32,0,0,0,0,0.042648
2022/10/11 00:19:00.001,n,266,4.68,0.72,5.4,16.9,69.2,1023.32,0,0,0,0,0.043488
2022/10/11 00:20:00.004,n,204,2.52,1.08,3.96,16.9,69.3,1023.32,0,0,0,0,0.043488
2022/10/11 00:21:00.002,n,212,3.24,2.16,3.96,16.8,69,1023.32,0,0,0,0,0.039139
2022/10/11 00:22:00.001,n,321,2.52,1.44,3.24,16.8,69.3,1023.22,0,0,0,0,0.044403
2022/10/11 00:23:00.001,n,262,2.88,2.16,3.6,16.8,69.2,1023.22,0,0,0,0,0.040894
2022/10/11 00:24:00.004,n,280,2.88,2.52,4.32,16.8,69.1,1023.22,0,0,0,0,0.040054
2022/10/11 00:25:00.007,n,253,4.32,3.96,5.04,16.8,68.8,1023.22,0,0,0,0,0.043488
2022/10/11 00:26:00.010,n,215,3.96,2.16,5.4,16.8,68.7,1023.22,0,0,0,0,0.040894
2022/10/11 00:27:00.015,n,298,2.16,1.8,2.52,16.8,69.5,1023.12,0,0,0,0,0.043488
2022/10/11 00:28:00.001,n,204,2.88,2.52,3.6,16.8,69.5,1023.12,0,0,0,0,0.043488
2022/10/11 00:29:00.002,n,308,2.52,1.44,3.6,16.8,69.4,1023.12,0,0,0,0,0.044403
2022/10/11 00:30:00.002,n,223,3.24,2.16,3.6,16.8,69.4,1023.12,0,0,0,0,0.041771
2022/10/11 00:31:00.001,n,281,2.52,1.8,3.24,16.8,69.3,1023.12,0,0,0,0,0.040054
2022/10/11 00:32:00.001,n,254,2.16,1.8,2.88,16.700002,69.3,1023.12,0,0,0,0,0.042648
2022/10/11 00:33:00.002,n,257,3.24,2.52,3.6,16.700002,69.1,1023.02,0,0,0,0,0.043488
2022/10/11 00:34:00.010,n,269,4.32,3.96,4.68,16.700002,69.6,1023.02,0,0,0,0,0.042648
2022/10/11 00:35:00.012,n,323,0.72,0.36,0.72,16.700002,69.5,1023.02,0,0,0,0,0.039139
2022/10/11 00:36:00.015,n,158,4.32,0.72,5.4,16.700002,69.5,1023.02,0,0,0,0,0.036545
2022/10/11 00:37:00.001,n,169,0.72,0.36,4.32,16.700002,69.4,1022.92,0,0,0,0,0.039139
2022/10/11 00:38:00.003,n,184,3.24,0.72,6.12,16.700002,69.4,1022.92,0,0,0,0,0.037422
2022/10/11 00:39:00.002,n,314,1.8,1.44,2.16,16.6,69.5,1022.92,0,0,0,0,0.040054
2022/10/11 00:40:00.001,n,285,2.52,1.8,2.88,16.6,70.2,1022.82,0,0,0,0,0.0383
2022/10/11 00:41:00.001,n,256,2.16,2.16,2.52,16.700002,69.7,1022.82,0,0,0,0,0.039139
2022/10/11 00:42:00.001,n,272,3.24,2.88,3.24,16.700002,69.6,1022.82,0,0,0,0,0.040894
2022/10/11 00:43:00.005,n,220,2.16,1.8,3.96,16.6,69.7,1022.82,0,0,0,0,0.03479
2022/10/11 00:44:00.007,n,234,3.24,2.16,4.32,16.6,69.6,1022.72,0,0,0,0,0.0383
2022/10/11 00:45:00.008,n,293,4.68,3.6,5.76,16.6,69.9,1022.72,0,0,0,0,0.036545
2022/10/11 00:46:00.001,n,214,1.8,1.44,2.16,16.6,69.8,1022.72,0,0,0,0,0.036545
2022/10/11 00:47:00.001,n,126,2.16,0.36,5.04,16.6,69.7,1022.62,0,0,0,0,0.03479
2022/10/11 00:48:00.002,n,146,1.08,0.72,1.44,16.6,69.8,1022.62,0,0,0,0,0.033073
2022/10/11 00:49:00.002,n,171,2.88,1.08,5.4,16.6,69.7,1022.62,0,0,0,0,0.035706
2022/10/11 00:50:00.005,n,130,0.72,0.36,0.72,16.6,69.8,1022.52,0,0,0,0,0.032196
2022/10/11 00:51:00.011,n,228,1.08,0.36,1.44,16.6,69.9,1022.52,0,0,0,0,0.033073
2022/10/11 00:52:00.013,n,297,0.36,0.36,0.72,16.6,69.8,1022.52,0,0,0,0,0.036545
2022/10/11 00:53:00.002,n,177,2.16,1.08,4.32,16.5,70,1022.52,0,0,0,0,0.03479
2022/10/11 00:54:00.005,n,273,0.72,0.36,1.08,16.5,70,1022.52,0,0,0,0,0.035706
2022/10/11 00:55:00.001,n,128,1.08,0.36,5.76,16.6,70.1,1022.52,0,0,0,0,0.033913
2022/10/11 00:56:00.001,n,98,1.8,0.72,2.16,16.5,69.9,1022.52,0,0,0,0,0.033913
2022/10/11 00:57:00.001,n,106,2.52,1.08,6.84,16.5,69.7,1022.42,0,0,0,0,0.033913
2022/10/11 00:58:00.001,n,162,2.88,2.16,6.84,16.5,69.6,1022.42,0,0,0,0,0.033913
2022/10/11 00:59:00.001,n,283,1.44,0.36,1.44,16.5,69.8,1022.42,0,0,0,0,0.032196
2022/10/11 01:00:00.002,n,133,1.08,0.72,1.08,16.5,70,1022.42,0,0,0,0,0.033913
2022/10/11 01:01:00.005,n,110,1.08,0.36,2.16,16.5,70.2,1022.42,0,0,0,0,0.033073
2022/10/11 01:02:00.009,n,0,0.72,0.36,1.8,16.5,70.1,1022.42,0,0,0,0,0.032196
2022/10/11 01:03:00.009,n,197,3.6,1.44,6.48,16.5,69.8,1022.42,0,0,0,0,0.030479
2022/10/11 01:04:00.001,n,231,1.44,1.08,1.8,16.5,69.8,1022.42,0,0,0,0,0.031319
2022/10/11 01:05:00.001,n,196,1.8,0.36,6.84,16.5,69.8,1022.32,0,0,0,0,0.032196
2022/10/11 01:06:00.001,n,176,2.88,1.8,5.04,16.5,69.7,1022.32,0,0,0,0,0.031319
2022/10/11 01:07:00.002,n,193,2.88,1.8,6.12,16.5,69.7,1022.32,0,0,0,0,0.032196
2022/10/11 01:08:00.005,n,152,3.96,3.24,3.96,16.5,69.6,1022.32,0,0,0,0,0.029564
2022/10/11 01:09:00.008,n,103,1.44,0.36,2.88,16.5,69.7,1022.22,0,0,0,0,0.032196
2022/10/11 01:10:00.001,n,181,4.68,1.8,6.84,16.5,69.7,1022.22,0,0,0,0,0.027847
2022/10/11 01:11:00.002,n,170,2.16,1.44,6.48,16.4,69.8,1022.12,0,0,0,0,0.024338
2022/10/11 01:12:00.005,n,182,2.88,2.16,2.88,16.4,69.9,1022.12,0,0,0,0,0.026131
2022/10/11 01:13:00.002,n,161,3.6,3.6,3.6,16.4,69.9,1022.12,0,0,0,0,0.030479
2022/10/11 01:14:00.001,n,190,4.68,4.32,5.4,16.4,69.9,1022.12,0,0,0,0,0.02697
2022/10/11 01:15:00.003,n,155,4.32,3.6,4.68,16.4,69.9,1022.12,0,0,0,0,0.031319
2022/10/11 01:16:00.005,n,161,1.8,0.36,5.4,16.4,70.1,1022.12,0,0,0,0,0.027847
2022/10/11 01:17:00.007,n,182,3.96,1.8,6.48,16.4,70.1,1022.12,0,0,0,0,0.024338
2022/10/11 01:18:00.002,n,301,2.52,1.44,2.88,16.4,70.2,1022.12,0,0,0,0,0.025215
2022/10/11 01:19:00.002,n,273,3.6,2.88,3.96,16.4,70.4,1022.12,0,0,0,0,0.024338
2022/10/11 01:20:00.001,n,267,2.88,2.52,3.24,16.4,70.6,1022.12,0,0,0,0,0.030479
2022/10/11 01:21:00.005,n,265,2.88,2.88,3.24,16.3,70.5,1022.12,0,0,0,0,0.026131
2022/10/11 01:22:00.002,n,281,3.24,2.88,3.6,16.3,70.8,1022.12,0,0,0,0,0.024338
2022/10/11 01:23:00.002,n,141,2.52,1.08,3.24,16.3,70.6,1022.12,0,0,0,0,0.026131
2022/10/11 01:24:00.002,n,252,2.88,2.16,3.24,16.3,70.5,1022.12,0,0,0,0,0.024338
2022/10/11 01:25:00.004,n,268,2.88,2.16,3.24,16.3,70.6,1022.02,0,0,0,0,0.02697
2022/10/11 01:26:00.006,n,270,1.8,1.8,1.8,16.3,70.6,1022.02,0,0,0,0,0.024338
2022/10/11 01:27:00.010,n,233,1.8,0.72,2.88,16.3,71.2,1022.02,0,0,0,0,0.021744
2022/10/11 01:28:00.013,n,282,1.44,1.08,1.8,16.3,71,1022.02,0,0,0,0,0.022621
2022/10/11 01:29:00.006,n,220,2.88,1.8,3.6,16.200002,70.8,1022.02,0,0,0,0,0.020866
2022/10/11 01:30:00.009,n,293,2.52,1.44,3.6,16.200002,70.8,1022.02,0,0,0,0,0.023499
2022/10/11 01:31:00.001,n,223,1.44,1.08,1.44,16.200002,71.3,1021.92,0,0,0,0,0.023499
2022/10/11 01:32:00.002,n,38,1.44,0.72,3.96,16.200002,71.3,1021.92,0,0,0,0,0.021744
2022/10/11 01:33:00.003,n,245,1.08,0.72,3.24,16.200002,71,1021.92,0,0,0,0,0.020866
2022/10/11 01:34:00.001,n,117,1.44,0.36,3.96,16.200002,70.8,1021.92,0,0,0,0,0.020866
2022/10/11 01:35:00.002,n,309,0.36,0,0.72,16.200002,71,1021.82,0,0,0,0,0.019989
2022/10/11 01:36:00.003,n,211,1.08,0.72,1.08,16.200002,71,1021.82,0,0,0,0,0.025291
2022/10/11 01:37:00.005,n,231,1.44,0.36,3.24,16.200002,70.8,1021.82,0,0,0,0,0.028725
2022/10/11 01:38:00.008,n,324,1.44,1.08,1.8,16.200002,71.1,1021.82,0,0,0,0,0.027847
2022/10/11 01:39:00.012,n,198,1.08,0.36,4.68,16.200002,71.1,1021.82,0,0,0,0,0.026131
2022/10/11 01:40:00.001,n,49,0.72,0,1.08,16.200002,71,1021.82,0,0,0,0,0.029602
2022/10/11 01:41:00.002,n,253,2.52,1.8,2.52,16.200002,71.1,1021.82,0,0,0,0,0.029602
2022/10/11 01:42:00.005,n,267,2.52,2.16,3.24,16.200002,71.4,1021.82,0,0,0,0,0.027008
2022/10/11 01:43:00.007,n,258,2.52,1.44,2.88,16.200002,71.8,1021.82,0,0,0,0,0.027847
2022/10/11 01:44:00.002,n,262,2.88,2.16,2.88,16.200002,71.5,1021.82,0,0,0,0,0.024376
2022/10/11 01:45:00.002,n,283,3.96,3.6,4.68,16.200002,71.5,1021.82,0,0,0,0,0.025291
2022/10/11 01:46:00.001,n,232,2.16,2.16,3.24,16.200002,71.5,1021.82,0,0,0,0,0.027008
2022/10/11 01:47:00.004,n,267,2.16,1.44,2.52,16.200002,71.4,1021.82,0,0,0,0,0.027847
2022/10/11 01:48:00.007,n,282,2.16,1.8,2.16,16.200002,71.3,1021.82,0,0,0,0,0.027008
2022/10/11 01:49:00.001,n,215,2.52,1.8,2.88,16.200002,71.5,1021.82,0,0,0,0,0.028725
2022/10/11 01:50:00.002,n,226,1.44,1.08,4.32,16.200002,71.3,1021.72,0,0,0,0,0.027008
2022/10/11 01:51:00.002,n,287,3.6,3.24,3.96,16.200002,71.7,1021.72,0,0,0,0,0.026131
2022/10/11 01:52:00.005,n,278,3.96,3.24,5.04,16.200002,72.2,1021.72,0,0,0,0,0.027847
2022/10/11 01:53:00.008,n,98,0.36,0.36,0.72,16.200002,71.9,1021.72,0,0,0,0,0.032234
2022/10/11 01:54:00.012,n,146,0.36,0,0.72,16.200002,71.6,1021.72,0,0,0,0,0.027008
2022/10/11 01:55:00.014,n,307,1.8,1.44,2.16,16.3,71.5,1021.72,0,0,0,0,0.025291
2022/10/11 01:56:00.002,n,287,3.24,3.24,3.6,16.3,72,1021.62,0,0,0,0,0.025291
2022/10/11 01:57:00.004,n,29,1.08,0.72,1.44,16.3,71.9,1021.62,0,0,0,0,0.029602
2022/10/11 01:58:00.002,n,163,1.44,1.08,1.8,16.3,71,1021.62,0,0,0,0,0.027008
2022/10/11 01:59:00.001,n,1,1.08,0,5.76,16.3,70.8,1021.62,0,0,0,0,0.025291
2022/10/11 02:00:00.004,n,278,1.8,1.08,2.16,16.3,70.6,1021.62,0,0,0,0,0.027008
2022/10/11 02:01:00.005,n,255,2.52,2.16,2.52,16.3,70.7,1021.62,0,0,0,0,0.027008
2022/10/11 02:02:00.008,n,277,2.52,1.44,3.6,16.3,70.2,1021.62,0,0,0,0,0.025291
2022/10/11 02:03:00.010,n,228,1.44,1.08,5.4,16.200002,70.1,1021.62,0,0,0,0,0.029602
2022/10/11 02:04:00.012,n,193,2.52,2.52,2.88,16.200002,70.2,1021.62,0,0,0,0,0.028725
2022/10/11 02:05:00.015,n,248,2.16,1.8,2.16,16.200002,70.2,1021.52,0,0,0,0,0.031357
2022/10/11 02:06:00.004,n,282,5.4,5.04,5.76,16.200002,70,1021.52,0,0,0,0,0.030479
2022/10/11 02:07:00.001,n,241,3.24,1.44,3.96,16.200002,70,1021.52,0,0,0,0,0.027847
2022/10/11 02:08:00.001,n,270,3.24,2.52,3.96,16.200002,70,1021.52,0,0,0,0,0.031357
2022/10/11 02:09:00.001,n,222,1.44,1.08,1.8,16.1,70.2,1021.52,0,0,0,0,0.027847
2022/10/11 02:10:00.002,n,250,2.16,1.8,2.52,16.1,70.1,1021.42,0,0,0,0,0.031357
2022/10/11 02:11:00.004,n,256,3.24,1.8,3.6,16.1,70.1,1021.42,0,0,0,0,0.028725
2022/10/11 02:12:00.009,n,278,2.52,2.16,3.6,16.1,70.6,1021.42,0,0,0,0,0.026131
2022/10/11 02:13:00.012,n,239,3.6,1.44,4.32,16.1,70.2,1021.42,0,0,0,0,0.027847
2022/10/11 02:14:00.001,n,276,3.24,2.52,3.96,16.1,70.3,1021.42,0,0,0,0,0.029602
2022/10/11 02:15:00.002,n,283,2.52,2.16,2.88,16.1,70.8,1021.42,0,0,0,0,0.028725
2022/10/11 02:16:00.001,n,195,2.88,2.16,4.68,16.1,70.5,1021.42,0,0,0,0,0.031357
2022/10/11 02:17:00.002,n,165,4.32,3.96,4.68,16.1,70.4,1021.42,0,0,0,0,0.031357
2022/10/11 02:18:00.001,n,163,3.96,3.24,8.28,16.1,70.2,1021.42,0,0,0,0,0.033073
2022/10/11 02:19:00.002,n,260,4.68,1.08,5.04,16.1,70.3,1021.42,0,0,0,0,0.029602
2022/10/11 02:20:00.001,n,270,3.96,3.6,3.96,16.1,69.8,1021.42,0,0,0,0,0.028725
2022/10/11 02:21:00.002,n,201,2.88,2.16,3.96,16.1,69.9,1021.32,0,0,0,0,0.029602
2022/10/11 02:22:00.004,n,261,3.96,2.52,4.68,16.1,70,1021.32,0,0,0,0,0.031357
2022/10/11 02:23:00.006,n,353,2.16,0.36,3.96,16.1,70.5,1021.32,0,0,0,0,0.029602
2022/10/11 02:24:00.010,n,245,1.44,1.08,1.8,16.1,70.4,1021.32,0,0,0,0,0.033951
2022/10/11 02:25:00.002,n,276,5.04,4.32,5.4,16.1,70.4,1021.32,0,0,0,0,0.028725
2022/10/11 02:26:00.001,n,115,3.24,2.16,3.6,16.1,70.2,1021.22,0,0,0,0,0.030479
2022/10/11 02:27:00.003,n,326,2.52,1.8,6.84,16.1,70.4,1021.22,0,0,0,0,0.031357
2022/10/11 02:28:00.005,n,346,0.36,0,0.72,16.1,70.5,1021.22,0,0,0,0,0.033073
2022/10/11 02:29:00.010,n,337,1.08,0.36,2.88,16.1,70.2,1021.32,0,0,0,0,0.031357
2022/10/11 02:30:00.002,n,273,2.16,1.44,2.88,16,70.6,1021.32,0,0,0,0,0.031357
2022/10/11 02:31:00.003,n,188,3.6,1.8,6.84,16.1,70.5,1021.32,0,0,0,0,0.029602
2022/10/11 02:32:00.016,n,128,2.52,1.8,3.24,16.1,70.3,1021.32,0,0,0,0,0.031357
2022/10/11 02:33:00.018,n,212,2.16,0.72,4.32,16,70.3,1021.22,0,0,0,0,0.031357
2022/10/11 02:34:00.002,n,328,3.24,0.72,5.76,16,70.3,1021.22,0,0,0,0,0.029602
2022/10/11 02:35:00.002,n,300,2.88,2.16,3.96,16.1,70.8,1021.22,0,0,0,0,0.032234
2022/10/11 02:36:00.001,n,56,2.16,0.36,4.68,16.1,70.6,1021.32,0,0,0,0,0.033073
2022/10/11 02:37:00.001,n,288,0.72,0,5.04,16.1,70.3,1021.32,0,0,0,0,0.033073
2022/10/11 02:38:00.001,n,304,1.08,0.36,4.32,16,70.5,1021.32,0,0,0,0,0.028725
2022/10/11 02:39:00.001,n,261,3.24,1.08,3.6,16,70.4,1021.32,0,0,0,0,0.029602
2022/10/11 02:40:00.002,n,132,3.96,1.44,5.4,16,70.3,1021.32,0,0,0,0,0.030479
2022/10/11 02:41:00.003,n,279,3.6,3.24,3.96,16,70.3,1021.32,0,0,0,0,0.028725
2022/10/11 02:42:00.008,n,170,2.52,2.16,3.6,15.9,70.6,1021.32,0,0,0,0,0.028725
2022/10/11 02:43:00.002,n,147,4.68,2.88,6.48,15.9,70.1,1021.22,0,0,0,0,0.027847
2022/10/11 02:44:00.001,n,173,6.84,4.32,7.92,15.8,70.3,1021.22,0,0,0,0,0.030479
2022/10/11 02:45:00.003,n,300,3.96,3.24,5.04,15.8,70.9,1021.22,0,0,0,0,0.027008
2022/10/11 02:46:00.007,n,154,2.16,1.44,3.6,15.8,70.6,1021.22,0,0,0,0,0.028725
2022/10/11 02:47:00.010,n,170,4.32,0.72,5.76,15.8,70.6,1021.22,0,0,0,0,0.027008
2022/10/11 02:48:00.002,n,166,3.6,2.88,6.12,15.8,70.6,1021.22,0,0,0,0,0.028725
2022/10/11 02:49:00.001,n,270,3.6,3.24,3.96,15.8,70.9,1021.32,0,0,0,0,0.028725
2022/10/11 02:50:00.003,n,293,4.68,3.6,6.48,15.8,71.3,1021.32,0,0,0,0,0.024376
2022/10/11 02:51:00.008,n,165,2.88,2.16,4.32,15.8,70.9,1021.32,0,0,0,0,0.025291
2022/10/11 02:52:00.003,n,138,3.6,2.52,5.76,15.8,70.9,1021.22,0,0,0,0,0.026131
2022/10/11 02:53:00.001,n,199,2.16,1.44,3.6,15.7,70.9,1021.22,0,0,0,0,0.028725
2022/10/11 02:54:00.001,n,212,2.52,1.44,3.6,15.7,71.2,1021.22,0,0,0,0,0.027847
2022/10/11 02:55:00.001,n,271,3.6,3.24,4.32,15.7,71.2,1021.22,0,0,0,0,0.023499
2022/10/11 02:56:00.003,n,227,1.44,0.36,5.04,15.7,71.2,1021.22,0,0,0,0,0.021782
2022/10/11 02:57:00.006,n,296,1.44,0.36,6.84,15.7,71.6,1021.22,0,0,0,0,0.025291
2022/10/11 02:58:00.008,n,203,2.88,1.8,5.76,15.7,71.4,1021.22,0,0,0,0,0.023499
2022/10/11 02:59:00.012,n,193,3.96,2.52,5.04,15.7,71.5,1021.22,0,0,0,0,0.025291
2022/10/11 03:00:00.015,n,144,1.44,1.08,1.44,15.7,71.4,1021.22,0,0,0,0,0.026131
2022/10/11 03:01:00.003,n,279,1.8,1.08,2.16,15.7,71.4,1021.22,0,0,0,0,0.025291
2022/10/11 03:02:00.003,n,241,5.04,4.68,5.04,15.6,71.4,1021.22,0,0,0,0,0.023499
2022/10/11 03:03:00.002,n,185,3.6,1.8,7.56,15.6,71.4,1021.22,0,0,0,0,0.020027
2022/10/11 03:04:00.001,n,227,3.6,2.16,4.32,15.6,71.4,1021.22,0,0,0,0,0.021782
2022/10/11 03:05:00.004,n,276,4.32,3.6,5.04,15.6,71.5,1021.22,0,0,0,0,0.020905
2022/10/11 03:06:00.007,n,282,4.68,4.32,5.04,15.6,71.4,1021.22,0,0,0,0,0.024376
2022/10/11 03:07:00.004,n,262,5.76,1.44,6.84,15.6,71.5,1021.22,0,0,0,0,0.022659
2022/10/11 03:08:00.005,n,246,2.88,2.16,3.24,15.6,71.4,1021.22,0,0,0,0,0.022659
2022/10/11 03:09:00.010,n,260,9.72,9,10.8,15.6,71.5,1021.22,0,0,0,0,0.018311
2022/10/11 03:10:00.001,n,255,5.4,4.32,6.12,15.6,71.3,1021.32,0,0,0,0,0.020905
2022/10/11 03:11:00.001,n,233,3.24,0.36,5.04,15.6,71.6,1021.32,0,0,0,0,0.021782
2022/10/11 03:12:00.005,n,165,2.52,1.08,3.6,15.6,71.6,1021.32,0,0,0,0,0.020027
2022/10/11 03:13:00.009,n,157,2.52,1.44,3.24,15.6,71.6,1021.32,0,0,0,0,0.01915
2022/10/11 03:14:00.005,n,281,5.04,4.68,5.76,15.5,71.8,1021.32,0,0,0,0,0.021782
2022/10/11 03:15:00.007,n,255,4.68,4.32,5.4,15.5,71.6,1021.32,0,0,0,0,0.018311
2022/10/11 03:16:00.012,n,281,3.24,2.16,4.32,15.5,71.7,1021.32,0,0,0,0,0.027847
2022/10/11 03:17:00.017,n,276,3.96,0.36,4.68,15.5,71.7,1021.32,0,0,0,0,0.031281
2022/10/11 03:18:00.010,n,257,3.24,1.8,4.32,15.5,71.7,1021.32,0,0,0,0,0.028687
2022/10/11 03:19:00.001,n,270,2.16,1.8,2.52,15.5,71.8,1021.32,0,0,0,0,0.028687
2022/10/11 03:20:00.002,n,121,3.6,1.08,4.68,15.5,72.4,1021.32,0,0,0,0,0.030441
2022/10/11 03:21:00.003,n,206,2.52,2.16,4.32,15.5,72.2,1021.32,0,0,0,0,0.029564
2022/10/11 03:22:00.007,n,253,3.24,1.44,3.96,15.4,72,1021.32,0,0,0,0,0.029564
2022/10/11 03:23:00.001,n,243,3.96,2.16,5.4,15.4,72.1,1021.32,0,0,0,0,0.027847
2022/10/11 03:24:00.002,n,216,2.88,1.08,3.96,15.4,72.2,1021.32,0,0,0,0,0.026932
2022/10/11 03:25:00.002,n,282,2.52,1.8,3.24,15.4,72.3,1021.32,0,0,0,0,0.025215
2022/10/11 03:26:00.002,n,168,2.88,2.16,3.96,15.4,72.4,1021.32,0,0,0,0,0.023499
2022/10/11 03:27:00.003,n,247,3.96,0.36,6.12,15.4,72.7,1021.32,0,0,0,0,0.025215
2022/10/11 03:28:00.002,n,199,2.52,1.08,3.6,15.3,72.8,1021.32,0,0,0,0,0.023499
2022/10/11 03:29:00.002,n,340,1.8,0.72,3.6,15.3,72.9,1021.32,0,0,0,0,0.022621
2022/10/11 03:30:00.002,n,135,3.24,1.44,4.68,15.3,73.1,1021.32,0,0,0,0,0.024338
2022/10/11 03:31:00.002,n,268,1.08,0.72,1.8,15.3,73.4,1021.32,0,0,0,0,0.025215
2022/10/11 03:32:00.003,n,159,2.16,0.36,5.04,15.3,73.7,1021.32,0,0,0,0,0.022621
2022/10/11 03:33:00.008,n,132,3.96,0.72,5.76,15.3,73.7,1021.32,0,0,0,0,0.021706
2022/10/11 03:34:00.011,n,308,2.88,1.8,4.32,15.3,73.6,1021.32,0,0,0,0,0.023499
2022/10/11 03:35:00.015,n,310,1.8,1.44,3.24,15.3,73.6,1021.32,0,0,0,0,0.022621
2022/10/11 03:36:00.017,n,265,2.52,2.16,3.24,15.3,73.5,1021.32,0,0,0,0,0.023499
2022/10/11 03:37:00.001,n,258,3.96,1.08,4.68,15.3,73.6,1021.32,0,0,0,0,0.023499
2022/10/11 03:38:00.001,n,143,3.24,0.36,5.04,15.2,73.6,1021.32,0,0,0,0,0.021706
2022/10/11 03:39:00.004,n,320,1.8,1.44,2.52,15.2,73.8,1021.32,0,0,0,0,0.019989
2022/10/11 03:40:00.006,n,316,1.8,1.44,2.16,15.2,74.1,1021.22,0,0,0,0,0.020866
2022/10/11 03:41:00.010,n,286,1.44,1.44,1.8,15.2,73.9,1021.22,0,0,0,0,0.020866
2022/10/11 03:42:00.011,n,277,1.44,0.36,4.68,15.2,73.7,1021.32,0,0,0,0,0.019112
2022/10/11 03:43:00.001,n,305,2.52,2.16,2.88,15.2,74,1021.32,0,0,0,0,0.020866
2022/10/11 03:44:00.002,n,273,3.24,2.16,3.96,15.2,74,1021.32,0,0,0,0,0.019989
2022/10/11 03:45:00.005,n,258,5.04,4.32,6.12,15.2,73.8,1021.32,0,0,0,0,0.020905
2022/10/11 03:46:00.002,n,228,2.52,2.52,2.88,15.2,73.9,1021.32,0,0,0,0,0.027847
2022/10/11 03:47:00.002,n,282,3.24,2.88,3.6,15.2,74.2,1021.32,0,0,0,0,0.026131
2022/10/11 03:48:00.006,n,164,2.52,1.08,4.32,15.1,74,1021.32,0,0,0,0,0.02697
2022/10/11 03:49:00.002,n,292,3.96,3.24,4.68,15.1,74.2,1021.32,0,0,0,0,0.02697
2022/10/11 03:50:00.001,n,268,3.6,2.52,3.96,15.1,74.4,1021.32,0,0,0,0,0.026131
2022/10/11 03:51:00.001,n,150,3.96,2.16,6.12,15.1,74.5,1021.32,0,0,0,0,0.025253
2022/10/11 03:52:00.002,n,272,1.08,0.72,1.8,15.1,74.4,1021.42,0,0,0,0,0.024376
2022/10/11 03:53:00.004,n,165,5.4,3.6,6.84,15.1,74.4,1021.32,0,0,0,0,0.025253
2022/10/11 03:54:00.006,n,172,3.96,1.44,5.76,15.1,74.2,1021.32,0,0,0,0,0.02697
2022/10/11 03:55:00.001,n,233,1.8,1.08,2.88,15.1,74.3,1021.32,0,0,0,0,0.024376
2022/10/11 03:56:00.002,n,249,3.96,2.88,5.4,15.1,74.5,1021.32,0,0,0,0,0.024376
2022/10/11 03:57:00.002,n,170,4.32,1.44,6.12,15.1,74.5,1021.32,0,0,0,0,0.024376
2022/10/11 03:58:00.002,n,225,2.88,1.44,4.68,15.1,74.8,1021.32,0,0,0,0,0.024376
2022/10/11 03:59:00.002,n,188,2.52,1.08,6.12,15.2,74.9,1021.32,0,0,0,0,0.026131
2022/10/11 04:00:00.002,n,128,2.88,2.16,3.6,15.2,74.6,1021.32,0,0,0,0,0.024376
2022/10/11 04:01:00.001,n,184,1.8,0.36,5.76,15.2,74.4,1021.32,0,0,0,0,0.020027
2022/10/11 04:02:00.001,n,162,1.8,0.36,4.68,15.2,74.5,1021.32,0,0,0,0,0.026131
2022/10/11 04:03:00.011,n,148,3.24,1.8,7.2,15.2,74.3,1021.32,0,0,0,0,0.024376
2022/10/11 04:04:00.001,n,142,1.44,0.36,4.32,15.1,74.3,1021.32,0,0,0,0,0.023499
2022/10/11 04:05:00.002,n,208,2.16,1.08,4.68,15.1,74.5,1021.32,0,0,0,0,0.023499
2022/10/11 04:06:00.002,n,193,1.44,0,5.04,15.2,74.9,1021.32,0,0,0,0,0.020027
2022/10/11 04:07:00.005,n,325,1.08,0.36,3.96,15.2,74.9,1021.32,0,0,0,0,0.023499
2022/10/11 04:08:00.011,n,68,1.44,0,5.04,15.2,74.9,1021.32,0,0,0,0,0.021782
2022/10/11 04:09:00.002,n,23,1.44,0,3.96,15.2,74.8,1021.32,0,0,0,0,0.020905
2022/10/11 04:10:00.001,n,277,3.6,2.88,4.68,15.2,74.7,1021.32,0,0,0,0,0.021782
2022/10/11 04:11:00.007,n,274,2.52,2.16,3.24,15.2,74.9,1021.32,0,0,0,0,0.021782
2022/10/11 04:12:00.009,n,280,3.6,2.88,3.96,15.2,75.1,1021.32,0,0,0,0,0.026131
2022/10/11 04:13:00.001,n,292,1.08,0.36,4.32,15.2,75,1021.32,0,0,0,0,0.020905
2022/10/11 04:14:00.002,n,351,1.8,0.36,3.96,15.2,74.9,1021.42,0,0,0,0,0.021782
2022/10/11 04:15:00.001,n,304,2.88,2.52,4.32,15.2,75.2,1021.42,0,0,0,0,0.020027
2022/10/11 04:16:00.001,n,279,1.44,1.08,1.8,15.2,74.8,1021.42,0,0,0,0,0.020905
2022/10/11 04:17:00.001,n,159,2.88,1.44,4.32,15.1,74.7,1021.42,0,0,0,0,0.026131
2022/10/11 04:18:00.002,n,283,5.4,5.04,5.4,15.1,74.8,1021.42,0,0,0,0,0.032234
2022/10/11 04:19:00.007,n,258,4.68,1.44,5.04,15.1,74.8,1021.42,0,0,0,0,0.029602
2022/10/11 04:20:00.011,n,145,2.52,1.44,2.88,15.1,75,1021.42,0,0,0,0,0.028725
2022/10/11 04:21:00.014,n,286,1.8,1.44,1.8,15.1,75.1,1021.42,0,0,0,0,0.028725
2022/10/11 04:22:00.002,n,153,2.16,1.08,3.6,15.1,75.1,1021.42,0,0,0,0,0.029602
2022/10/11 04:23:00.002,n,238,2.52,1.08,3.24,15,75.1,1021.42,0,0,0,0,0.032234
2022/10/11 04:24:00.004,n,172,2.16,0,5.04,15,75.2,1021.42,0,0,0,0,0.033073
2022/10/11 04:25:00.006,n,234,2.88,2.52,3.24,15,75.4,1021.42,0,0,0,0,0.032234
2022/10/11 04:26:00.008,n,215,3.96,1.44,6.12,15,75.2,1021.42,0,0,0,0,0.031357
2022/10/11 04:27:00.012,n,274,3.6,3.6,3.96,15,75.4,1021.42,0,0,0,0,0.027885
2022/10/11 04:28:00.014,n,275,3.24,1.44,4.32,15,75.4,1021.42,0,0,0,0,0.027885
2022/10/11 04:29:00.016,n,156,4.32,2.52,7.56,15,75.2,1021.42,0,0,0,0,0.029602
2022/10/11 04:30:00.005,n,306,1.8,1.08,2.52,15,75.4,1021.52,0,0,0,0,0.027885
2022/10/11 04:31:00.002,n,187,5.04,3.6,7.2,15,75,1021.42,0,0,0,0,0.027008
2022/10/11 04:32:00.002,n,56,2.52,1.44,4.32,14.9,74.6,1021.52,0,0,0,0,0.024376
2022/10/11 04:33:00.002,n,347,3.24,0.36,7.92,15,75,1021.52,0,0,0,0,0.027885
2022/10/11 04:34:00.001,n,244,3.6,1.44,4.68,15,75.1,1021.52,0,0,0,0,0.026131
2022/10/11 04:35:00.002,n,272,2.52,1.44,4.32,15,74.9,1021.52,0,0,0,0,0.026131
2022/10/11 04:36:00.005,n,125,1.8,1.08,2.88,15,75,1021.52,0,0,0,0,0.030479
2022/10/11 04:37:00.006,n,303,3.24,2.52,3.6,15,75.3,1021.52,0,0,0,0,0.027885
2022/10/11 04:38:00.015,n,103,1.8,0,4.68,15,75.3,1021.52,0,0,0,0,0.028725
2022/10/11 04:39:00.017,n,293,2.16,1.44,2.88,15,75.1,1021.52,0,0,0,0,0.028725
2022/10/11 04:40:00.004,n,280,3.96,3.6,4.32,15,75.2,1021.52,0,0,0,0,0.028725
2022/10/11 04:41:00.001,n,282,2.52,1.44,3.24,15,75.2,1021.52,0,0,0,0,0.028725
2022/10/11 04:42:00.002,n,247,1.8,0,6.12,14.9,75.2,1021.52,0,0,0,0,0.031357
2022/10/11 04:43:00.001,n,172,5.04,3.6,8.28,15,75.3,1021.52,0,0,0,0,0.030479
2022/10/11 04:44:00.002,n,155,5.04,3.24,5.76,15,74.7,1021.52,0,0,0,0,0.031357
2022/10/11 04:45:00.004,n,164,4.32,1.08,9.72,15,74.8,1021.52,0,0,0,0,0.032234
2022/10/11 04:46:00.007,n,166,3.96,2.88,4.68,15,74.8,1021.52,0,0,0,0,0.029602
2022/10/11 04:47:00.009,n,175,4.68,1.8,6.84,15,74.9,1021.62,0,0,0,0,0.029602
2022/10/11 04:48:00.013,n,186,3.6,2.16,7.56,15,74.9,1021.62,0,0,0,0,0.033073
2022/10/11 04:49:00.001,n,180,3.96,1.44,6.48,15,75,1021.62,0,0,0,0,0.033073
2022/10/11 04:50:00.001,n,152,8.64,3.96,15.12,15,75,1021.62,0,0,0,0,0.033073
2022/10/11 04:51:00.002,n,180,6.84,4.68,9,15,74.9,1021.62,0,0,0,0,0.035706
2022/10/11 04:52:00.006,n,159,3.96,1.44,7.2,15,75.2,1021.62,0,0,0,0,0.03746
2022/10/11 04:53:00.007,n,151,5.76,4.32,7.56,15,75.5,1021.62,0,0,0,0,0.040932